Regional Weather Roundup
Issued by NWS

Home | Current Version | Previous Version | Text Only | Print | Product List | Glossary Off
Versions: 1 2 3 4 5 6 7 8 9 10 11 12 13 14 15 16 17 18 19 20 21 22 23 24 25 26 27 28 29 30 31 32 33 34 35 36 37 38 39 40 41 42 43 44 45 46 47 48 49 50

000
ASUS43 KOAX 210202
RWRNE

WEATHER ROUNDUP FOR NEBRASKA
NATIONAL WEATHER SERVICE OMAHA NE
900 PM CDT THU JUL 20 2017

NOTES: SATELLITE DATA IS BEING USED TO AUGMENT CLOUD COVER ABOVE
       12000 FEET.
       "FAIR" INDICATES FEW OR NO CLOUDS BELOW 12,000 FEET WITH NO
       SIGNIFICANT WEATHER AND/OR OBSTRUCTIONS TO VISIBILITY.


NEZ001>004-019>022-054>056-210300-
NEBRASKA PANHANDLE

CITY           SKY/WX    TMP DP  RH WIND       PRES   REMARKS
SCOTTSBLUFF    CLOUDY    83  61  47 SE10      29.95F
ALLIANCE       PTCLDY    80  60  50 SE8       29.96F
CHADRON        PTCLDY    88  59  37 SE10      29.89F
GORDON         FAIR      80  62  54 S6        29.95F
KIMBALL        CLOUDY    83  58  42 SE8       30.06S
SIDNEY         CLOUDY    83  56  39 SE7       30.03S
$$

NEZ057>060-069>072-079>082-210300-
SOUTHWEST NEBRASKA

CITY           SKY/WX    TMP DP  RH WIND       PRES   REMARKS
NORTH PLATTE   CLEAR     84  73  69 E12       29.90S HX  90
IMPERIAL       CLEAR     88  64  44 W3        29.90S
LEXINGTON      CLEAR     83  77  81 E8        29.90S HX  91
MCCOOK         CLEAR     90  61  37 SE6       29.87R HX  90
OGALLALA       CLEAR     88  65  47 E6        29.93F HX  90
$$

NEZ005>010-023>029-035>040-094-210300-
NORTH CENTRAL NEBRASKA

CITY           SKY/WX    TMP DP  RH WIND       PRES   REMARKS
VALENTINE      CLEAR     88  58  36 S10       29.91R
AINSWORTH      CLEAR     83  67  59 SE7       29.92S
BROKEN BOW     CLEAR     83  73  72 SE9       29.91F
O`NEILL        CLEAR     82  76  82 SE7       29.90F
ORD            CLEAR     86  70  58 SE8       29.88F HX  90
THEDFORD       CLEAR     85  70  60 SE7       29.93S HX  90
$$

NEZ041-046>049-061>064-073>077-083>087-210300-
SOUTH CENTRAL NEBRASKA

CITY           SKY/WX    TMP DP  RH WIND       PRES   REMARKS
GRAND ISLAND   CLEAR     84  79  85 E7        29.89F HX  96
AURORA         CLEAR     84  79  85 E8        29.89S HX  97
HASTINGS       CLEAR     88  74  63 E10       29.89F HX  96
HEBRON         CLEAR     86  73  63 SE7       29.88S HX  93
HOLDREGE       CLEAR     82  77  84 E10       29.89S HX  91
KEARNEY        CLEAR     83  78  85 E8        29.89F HX  93
YORK           CLEAR     84  79  84 SE9       29.89S HX  96
$$

NEZ011>018-030>034-042>045-210300-
NORTHEAST NEBRASKA

CITY           SKY/WX    TMP DP  RH WIND       PRES   REMARKS
NORFOLK        CLEAR     80  67  64 E7        29.89F
ALBION         CLEAR     84  76  75 E7        29.89F HX  93
BLAIR          CLOUDY    86  77  75 SE5       29.89F HX  97
COLUMBUS       CLEAR     81  76  84 E7        29.89S
FREMONT        CLOUDY    85  76  72 E5        29.89F HX  94
TEKAMAH        CLOUDY    83  72  69 E7        29.87F
WAYNE          CLEAR     78  74  88 CALM      29.90F
$$

NEZ050>053-065>068-078-088>093-210300-
SOUTHEAST NEBRASKA

CITY           SKY/WX    TMP DP  RH WIND       PRES   REMARKS
LINCOLN        CLEAR     91  73  55 SE13      29.88F HX  99
OMAHA EPPLEY   CLOUDY    90  77  65 SE10      29.86F HX 103
BEATRICE       CLEAR     87  75  67 SE7       29.88F HX  97
FALLS CITY     CLOUDY    86  77  74 S6        29.89F HX  97
NEBRASKA CITY  CLOUDY    84  76  76 S5        29.90F HX  92
PLATTSMOUTH    CLOUDY    86  79  79 E6        29.89F HX  99
$$

NEZ044-045-051>053-067-210300-
OMAHA AREA

CITY           SKY/WX    TMP DP  RH WIND       PRES   REMARKS
OMAHA EPPLEY   CLOUDY    90  77  65 SE10      29.86F HX 103
BLAIR          CLOUDY    86  77  75 SE5       29.89F HX  97
FREMONT        CLOUDY    85  76  72 E5        29.89F HX  94
MILLARD        CLOUDY    91  80  70 SE7       29.87F HX 108
OFFUTT AFB     PTCLDY    86  79  79 E5        29.87F HX  98
PLATTSMOUTH    CLOUDY    86  79  79 E6        29.89F HX  99
WAHOO          FAIR      86  76  72 E7        29.88F HX  96
$$




USA.gov is the U.S. government's official web portal to all federal, state and local government web resources and services.